W8BS Weather Reports


time (UTC)temp
F
wind
direction
speed
knots
gust
knots
rain 1hr
in
rain 24hr
in
rain mn
in
humidity
%
barometer
mb
20260508043517 39 190 0.0 0.0 0.00 0.00 0.00 85 1014.0
20260508043014 39 190 0.0 0.0 0.00 0.00 0.00 86 1014.2
20260508042511 39 190 0.0 0.0 0.00 0.00 0.00 86 1014.0
20260508042008 39 193 0.0 0.0 0.00 0.00 0.00 86 1014.0
20260508041505 39 191 0.0 0.9 0.00 0.00 0.00 87 1013.9
20260508041001 39 191 0.9 0.9 0.00 0.00 0.00 87 1014.1
20260508040458 39 191 0.9 0.9 0.00 0.00 0.00 86 1013.8
20260508035956 39 191 0.9 0.9 0.00 0.08 0.08 85 1014.0
20260508035453 39 190 0.9 0.9 0.00 0.08 0.08 85 1013.8
20260508034949 40 190 0.9 0.9 0.00 0.08 0.08 86 1013.5
20260508034447 40 189 0.0 0.9 0.00 0.08 0.08 86 1013.8
20260508033943 40 189 0.0 0.9 0.00 0.08 0.08 86 1013.7
20260508033441 41 189 0.0 0.9 0.00 0.08 0.08 86 1013.5
20260508032938 40 189 0.0 1.7 0.00 0.08 0.08 84 1013.5
20260508032436 41 188 0.0 0.0 0.00 0.08 0.08 85 1013.4
20260508031932 41 189 0.0 0.0 0.00 0.08 0.08 86 1013.4
20260508031430 41 188 0.0 0.9 0.00 0.08 0.08 85 1013.4
20260508030925 41 190 0.9 0.9 0.00 0.08 0.08 83 1013.3
20260508030423 41 189 0.9 0.9 0.00 0.08 0.08 84 1013.3
20260508025920 42 188 0.9 0.9 0.00 0.08 0.08 80 1013.3
20260508025416 42 190 0.9 0.9 0.00 0.08 0.08 80 1013.1
20260508024913 42 189 0.0 1.7 0.00 0.08 0.08 82 1013.2
20260508024410 42 189 0.0 0.9 0.00 0.08 0.08 82 1013.2
20260508023906 43 191 0.0 1.7 0.00 0.08 0.08 80 1013.2
20260508023403 43 191 0.9 0.9 0.00 0.08 0.08 76 1013.2
20260508022900 43 189 0.9 1.7 0.00 0.08 0.08 79 1012.9
20260508022356 42 191 0.0 0.9 0.00 0.08 0.08 77 1012.8
20260508021853 43 191 0.9 0.9 0.00 0.08 0.08 78 1012.9
20260508021349 43 191 0.0 0.9 0.00 0.08 0.08 77 1013.0
20260508020845 43 194 0.9 1.7 0.00 0.08 0.08 80 1012.8
20260508020343 44 192 0.9 1.7 0.00 0.08 0.08 83 1012.6
20260508015840 44 190 0.9 0.9 0.00 0.08 0.08 80 1012.6
20260508015338 44 188 0.9 0.9 0.00 0.08 0.08 77 1012.7
20260508014834 45 184 0.9 0.9 0.00 0.08 0.08 72 1012.6
20260508014331 45 184 0.0 0.9 0.00 0.08 0.08 76 1012.7
20260508013826 45 183 0.0 0.9 0.00 0.08 0.08 76 1012.5
20260508013323 46 182 0.9 1.7 0.00 0.08 0.08 68 1012.5
20260508012820 46 184 0.9 0.9 0.00 0.08 0.08 68 1012.2
20260508012317 46 184 0.0 0.9 0.00 0.08 0.08 71 1012.5
20260508011815 47 182 0.9 1.7 0.00 0.08 0.08 68 1012.1
20260508011312 47 190 0.9 1.7 0.00 0.08 0.08 71 1012.1
20260508010809 47 192 0.0 1.7 0.00 0.08 0.08 69 1012.1
20260508010307 48 185 0.9 0.9 0.00 0.08 0.08 69 1012.2
20260508005804 48 186 0.9 0.9 0.00 0.08 0.08 68 1012.1
20260508005301 48 184 0.0 0.0 0.00 0.08 0.08 64 1012.1
20260508004756 49 184 0.0 0.0 0.00 0.08 0.08 69 1011.9
20260508004253 49 184 0.0 1.7 0.00 0.08 0.08 62 1011.9
20260508003749 49 185 0.0 0.9 0.00 0.08 0.08 64 1011.8
20260508003247 50 182 0.0 0.9 0.00 0.08 0.08 59 1011.7
20260508002743 50 193 1.7 2.6 0.00 0.08 0.08 59 1011.5
20260508002241 50 211 1.7 2.6 0.00 0.08 0.08 60 1011.7
20260508001736 50 180 0.0 1.7 0.00 0.08 0.08 60 1011.4
20260508001232 51 181 0.0 0.0 0.00 0.08 0.08 65 1011.3
20260508000729 51 190 0.9 1.7 0.00 0.08 0.08 60 1011.3
20260508000227 52 176 0.0 1.7 0.00 0.08 0.08 58 1011.1
20260507235722 52 195 1.7 1.7 0.00 0.08 0.08 57 1011.2
20260507235220 52 180 0.9 1.7 0.00 0.08 0.08 58 1011.4
20260507234717 53 201 1.7 6.1 0.00 0.08 0.08 56 1011.1
20260507234213 53 189 0.9 1.7 0.00 0.08 0.08 56 1011.2
20260507233710 53 177 0.9 1.7 0.00 0.08 0.08 55 1011.0
20260507233208 53 210 2.6 5.2 0.00 0.08 0.08 56 1011.1
20260507232705 53 181 1.7 1.7 0.00 0.08 0.08 57 1011.2
20260507232202 53 183 0.0 0.9 0.00 0.08 0.08 57 1010.9
20260507231658 53 193 1.7 4.3 0.00 0.08 0.08 55 1011.0
20260507231155 53 209 0.9 1.7 0.00 0.08 0.08 56 1011.1
20260507230652 53 190 0.9 2.6 0.00 0.08 0.08 55 1010.6
20260507230149 53 203 1.7 5.2 0.00 0.08 0.08 55 1010.8
20260507225649 54 0 0.9 2.6 0.00 0.08 0.08 56 1010.7
20260507225146 55 251 2.6 4.3 0.00 0.08 0.08 54 1010.6
20260507224641 55 166 1.7 2.6 0.00 0.08 0.08 55 1010.7
20260507224138 55 251 3.5 6.1 0.00 0.08 0.08 53 1010.4
20260507223634 55 188 1.7 5.2 0.00 0.08 0.08 54 1010.4
20260507223131 55 148 0.9 2.6 0.00 0.08 0.08 54 1010.2
20260507222628 55 198 3.5 5.2 0.00 0.08 0.08 53 1010.6
20260507222124 55 183 0.9 2.6 0.00 0.08 0.08 57 1010.7
20260507221621 55 157 0.9 1.7 0.00 0.08 0.08 55 1010.6
20260507221117 55 184 0.9 0.9 0.00 0.08 0.08 56 1010.4
20260507220615 55 278 2.6 2.6 0.00 0.08 0.08 54 1010.6
20260507220112 55 229 2.6 5.2 0.00 0.08 0.08 54 1010.3
20260507215608 56 223 6.1 7.0 0.00 0.08 0.08 53 1010.4
20260507215106 56 220 1.7 4.3 0.00 0.08 0.08 53 1010.0
20260507214603 56 261 2.6 6.1 0.00 0.08 0.08 52 1010.0
20260507214059 56 56 2.6 2.6 0.00 0.08 0.08 54 1010.0
20260507213555 56 182 0.9 4.3 0.00 0.08 0.08 54 1010.1
20260507213053 55 193 0.9 5.2 0.00 0.08 0.08 54 1010.1
20260507212548 55 198 2.6 4.3 0.00 0.08 0.08 54 1010.1
20260507212046 56 325 1.7 5.2 0.00 0.08 0.08 54 1010.0
20260507211542 56 191 0.0 1.7 0.00 0.08 0.08 55 1009.9
20260507211038 56 325 2.6 4.3 0.00 0.08 0.08 53 1010.0
20260507210536 56 196 0.9 5.2 0.00 0.08 0.08 54 1009.7
20260507210032 57 141 2.6 5.2 0.00 0.08 0.08 53 1010.0
20260507205529 57 225 2.6 4.3 0.00 0.08 0.08 52 1009.8
20260507205025 57 176 0.9 4.3 0.00 0.08 0.08 53 1009.9
20260507204521 56 178 0.9 2.6 0.00 0.08 0.08 54 1009.6
20260507204019 58 143 1.7 7.0 0.00 0.08 0.08 50 1009.7
20260507203517 57 219 0.9 4.3 0.00 0.08 0.08 52 1009.7
20260507203014 58 192 2.6 6.1 0.00 0.08 0.08 50 1009.9
20260507202510 59 239 4.3 7.0 0.00 0.08 0.08 51 1009.9
20260507202006 58 185 0.0 0.9 0.00 0.08 0.08 54 1010.0
20260507201502 58 202 1.7 4.3 0.00 0.08 0.08 52 1009.8
20260507200958 59 197 1.7 7.0 0.00 0.08 0.08 52 1009.8
20260507200454 59 200 1.7 7.0 0.00 0.08 0.08 51 1010.0
20260507195949 58 193 3.5 5.2 0.00 0.08 0.08 51 1010.0
20260507195448 59 203 3.5 6.1 0.00 0.08 0.08 52 1010.2
20260507194945 58 163 2.6 2.6 0.00 0.08 0.08 53 1010.3
20260507194441 59 250 2.6 4.3 0.00 0.08 0.08 54 1010.6
20260507193937 58 202 2.6 6.1 0.00 0.08 0.08 52 1010.6
20260507193434 58 198 2.6 5.2 0.00 0.08 0.08 51 1010.2
20260507192931 58 254 4.3 7.0 0.00 0.08 0.08 53 1010.2
20260507192427 55 311 1.7 4.3 0.00 0.08 0.08 59 1010.7
20260507191924 55 211 0.9 6.1 0.00 0.08 0.08 56 1010.2
20260507191420 55 277 3.5 7.8 0.00 0.08 0.08 58 1010.3
20260507190917 56 283 3.5 7.0 0.00 0.08 0.08 56 1010.6
20260507190415 57 220 1.7 6.1 0.00 0.08 0.08 55 1010.7
20260507185914 59 215 2.6 5.2 0.00 0.08 0.08 55 1010.2
20260507185410 59 218 1.7 4.3 0.00 0.08 0.08 53 1010.3
20260507184907 59 192 1.7 4.3 0.00 0.08 0.08 54 1010.6
20260507184405 57 190 0.9 1.7 0.00 0.08 0.08 54 1010.3
20260507183902 56 213 2.6 5.2 0.00 0.08 0.08 58 1010.6
20260507183359 56 253 1.7 4.3 0.00 0.08 0.08 58 1010.6
20260507182856 57 197 1.7 5.2 0.00 0.08 0.08 60 1010.7
20260507182352 58 193 0.9 5.2 0.00 0.08 0.08 60 1010.7
20260507181849 57 210 2.6 5.2 0.00 0.08 0.08 59 1010.8
20260507181344 58 187 0.9 2.6 0.00 0.08 0.08 60 1010.7
20260507180842 58 214 2.6 5.2 0.00 0.08 0.08 59 1010.7
20260507180338 57 172 2.6 7.0 0.00 0.08 0.08 61 1010.8
20260507175834 57 265 3.5 7.0 0.00 0.08 0.08 59 1010.8
20260507175331 57 175 2.6 4.3 0.00 0.08 0.08 62 1010.6
20260507174828 57 203 1.7 4.3 0.00 0.08 0.08 60 1010.8
20260507174326 57 249 2.6 4.3 0.00 0.08 0.08 63 1010.9
20260507173823 55 204 2.6 2.6 0.00 0.08 0.08 66 1010.9
20260507173320 54 197 0.9 2.6 0.00 0.08 0.08 65 1010.8
20260507172817 53 197 1.7 1.7 0.00 0.08 0.08 67 1011.0
20260507172314 53 198 1.7 1.7 0.00 0.08 0.08 68 1011.0
20260507171809 53 207 0.9 7.0 0.00 0.08 0.08 69 1011.2
20260507171307 55 249 1.7 1.7 0.00 0.08 0.08 65 1011.2
20260507170803 55 239 2.6 5.2 0.00 0.08 0.08 64 1011.2
20260507170300 55 219 3.5 4.3 0.00 0.08 0.08 68 1011.3
20260507165756 54 186 0.0 2.6 0.00 0.08 0.08 67 1011.5
20260507165252 53 197 0.0 4.3 0.00 0.08 0.08 67 1011.7
20260507164748 53 198 2.6 5.2 0.00 0.08 0.08 68 1011.6
20260507164245 53 199 2.6 2.6 0.00 0.08 0.08 69 1011.3
20260507163742 52 222 2.6 4.3 0.00 0.08 0.08 71 1011.6
20260507163240 52 179 1.7 6.1 0.00 0.08 0.08 69 1011.6
20260507162736 53 190 1.7 1.7 0.00 0.08 0.08 67 1011.6
20260507162232 54 206 2.6 6.1 0.00 0.08 0.08 66 1011.8
20260507161729 53 225 0.9 1.7 0.00 0.08 0.08 68 1011.8
20260507161225 51 278 2.6 5.2 0.00 0.08 0.08 71 1011.9
20260507160721 52 190 0.9 4.3 0.00 0.08 0.08 69 1011.8
20260507160218 53 122 0.9 4.3 0.00 0.08 0.08 68 1011.8
20260507155714 53 252 2.6 5.2 0.00 0.08 0.08 68 1011.9
20260507155210 53 138 1.7 2.6 0.00 0.08 0.08 71 1011.8
20260507154707 52 194 0.0 2.6 0.00 0.08 0.08 69 1011.9
20260507154205 51 181 1.7 4.3 0.00 0.08 0.08 71 1012.2
20260507153701 51 128 0.9 5.2 0.00 0.08 0.08 70 1011.9
20260507153157 53 161 0.0 1.7 0.00 0.08 0.08 74 1011.9
20260507152654 51 101 3.5 4.3 0.00 0.08 0.08 74 1011.8
20260507152150 52 150 0.0 2.6 0.00 0.08 0.08 74 1011.8
20260507151646 51 133 0.0 2.6 0.00 0.08 0.08 73 1011.9
20260507151143 53 196 1.7 1.7 0.00 0.08 0.08 73 1011.9
20260507150640 51 158 0.0 1.7 0.00 0.08 0.08 80 1011.9
20260507150137 50 268 0.9 2.6 0.00 0.08 0.08 77 1012.3
20260507145632 51 112 0.0 0.9 0.00 0.08 0.08 75 1012.2
20260507145130 50 202 0.0 4.3 0.00 0.08 0.08 75 1012.1
20260507144626 50 222 2.6 2.6 0.00 0.08 0.08 82 1012.2
20260507144124 49 188 0.9 2.6 0.00 0.08 0.08 83 1012.3
20260507143620 49 187 0.9 1.7 0.00 0.08 0.08 86 1012.5
20260507143118 47 188 0.9 2.6 0.00 0.08 0.08 89 1012.7
20260507142613 46 182 1.7 2.6 0.00 0.08 0.08 91 1012.4
20260507142110 46 201 1.7 2.6 0.00 0.08 0.08 95 1012.7
20260507141606 46 183 0.9 0.9 0.00 0.08 0.08 99 1012.9
20260507141103 46 195 1.7 2.6 0.00 0.08 0.08 99 1012.7
20260507140600 46 183 0.9 0.9 0.00 0.08 0.08 99 1012.9
20260507140057 46 186 0.9 1.7 0.00 0.08 0.08 99 1012.9
20260507135554 46 197 0.9 0.9 0.00 0.08 0.08 99 1012.8
20260507135052 45 190 0.0 0.9 0.00 0.08 0.08 99 1012.9
20260507134548 46 227 0.9 1.7 0.00 0.08 0.08 99 1013.1
20260507134044 45 189 0.9 0.9 0.00 0.08 0.08 99 1013.0
20260507133540 46 188 0.0 0.0 0.00 0.08 0.08 99 1012.9
20260507133038 46 187 0.0 0.0 0.00 0.08 0.08 99 1013.1
20260507132534 45 187 0.0 0.9 0.00 0.08 0.08 99 1013.2
20260507132031 45 187 0.0 0.9 0.00 0.08 0.08 99 1013.1
20260507131528 45 184 0.0 0.9 0.00 0.08 0.08 99 1013.0
20260507131025 45 189 0.0 1.7 0.00 0.08 0.08 99 1013.1
20260507130522 46 183 0.0 0.9 0.00 0.08 0.08 99 1013.0
20260507130020 45 185 0.0 0.9 0.00 0.08 0.08 99 1013.0
20260507125518 45 182 0.0 0.9 0.00 0.08 0.08 99 1013.2
20260507125015 45 187 0.9 1.7 0.00 0.08 0.08 99 1013.1
20260507124512 44 189 0.0 0.9 0.00 0.08 0.08 99 1013.1
20260507124010 45 187 0.9 0.9 0.00 0.08 0.08 99 1013.1
20260507123507 44 182 0.0 0.0 0.00 0.08 0.08 99 1013.3
20260507123003 44 183 0.0 0.9 0.00 0.08 0.08 99 1013.4
20260507122459 44 184 0.9 0.9 0.00 0.08 0.08 99 1013.0
20260507121955 44 186 0.0 0.0 0.00 0.08 0.08 99 1013.3
20260507121451 44 187 0.0 0.9 0.00 0.08 0.08 99 1013.4
20260507120947 44 186 0.0 0.0 0.00 0.08 0.08 99 1013.3
20260507120443 44 186 0.0 0.9 0.00 0.08 0.08 99 1013.2
20260507115940 44 185 0.0 0.0 0.00 0.08 0.08 99 1013.0
20260507115436 44 185 0.0 0.0 0.00 0.08 0.08 99 1013.1
20260507114932 44 185 0.0 0.0 0.00 0.08 0.08 99 1013.0
20260507114429 44 186 0.0 0.9 0.00 0.08 0.08 99 1013.1
20260507113926 44 186 0.0 0.0 0.00 0.08 0.08 99 1013.2
20260507113423 44 186 0.0 0.9 0.00 0.08 0.08 99 1012.8
20260507112921 44 186 0.0 0.0 0.00 0.08 0.08 99 1012.7
20260507112418 44 186 0.0 0.0 0.00 0.08 0.08 99 1012.7
20260507111915 44 186 0.0 0.0 0.00 0.08 0.08 99 1012.3
20260507111412 44 186 0.0 0.0 0.00 0.08 0.08 99 1012.4
20260507110908 44 186 0.0 0.0 0.00 0.08 0.08 99 1012.7
20260507110404 44 186 0.0 0.0 0.00 0.08 0.08 99 1012.4
20260507105901 44 186 0.0 0.0 0.00 0.08 0.08 99 1012.4
20260507105358 44 186 0.0 0.0 0.00 0.08 0.08 99 1012.4
20260507104855 43 186 0.0 0.0 0.00 0.08 0.08 99 1012.1
20260507104351 44 186 0.0 0.9 0.00 0.08 0.08 99 1012.1
20260507103847 44 187 0.0 0.0 0.00 0.08 0.08 99 1012.1
20260507103344 44 186 0.0 0.0 0.00 0.08 0.08 99 1012.3
20260507102841 44 186 0.0 0.9 0.00 0.08 0.08 99 1012.1
20260507102337 43 186 0.0 0.0 0.00 0.08 0.08 99 1012.4
20260507101834 44 188 0.9 0.9 0.00 0.08 0.08 99 1012.2
20260507101334 44 189 0.0 0.9 0.00 0.08 0.08 99 1012.4
20260507100831 44 186 0.0 0.0 0.00 0.08 0.08 99 1012.3
20260507100329 44 186 0.0 0.0 0.00 0.08 0.08 99 1012.2
20260507095827 43 186 0.0 0.0 0.00 0.08 0.08 99 1012.2
20260507095323 44 186 0.0 0.9 0.00 0.08 0.08 99 1012.2
20260507094821 44 186 0.9 0.9 0.00 0.08 0.08 99 1011.9
20260507094317 44 186 0.0 0.0 0.00 0.08 0.08 99 1011.8
20260507093814 44 186 0.0 0.0 0.00 0.08 0.08 99 1012.2
20260507093312 44 186 0.0 0.0 0.00 0.08 0.08 99 1011.7
20260507092810 44 186 0.0 0.0 0.00 0.08 0.08 99 1011.8
20260507092307 44 185 0.0 0.9 0.00 0.08 0.08 99 1012.1
20260507091803 44 184 0.0 0.0 0.00 0.08 0.08 99 1012.1
20260507091259 44 187 0.0 0.9 0.00 0.08 0.08 99 1012.1
20260507090759 44 187 0.0 0.9 0.00 0.08 0.08 99 1011.9
20260507090256 44 187 0.9 0.9 0.00 0.08 0.08 99 1011.9
20260507085754 44 185 0.9 1.7 0.00 0.08 0.08 99 1012.3
20260507085250 44 186 0.0 0.9 0.00 0.08 0.08 99 1012.2
20260507084748 44 189 0.0 1.7 0.00 0.08 0.08 99 1012.1
20260507084244 44 186 0.9 0.9 0.00 0.08 0.08 99 1011.9
20260507083741 44 195 0.0 0.9 0.00 0.08 0.08 99 1011.7
20260507083238 44 192 0.9 2.6 0.00 0.08 0.08 99 1011.9
20260507082734 44 185 0.0 0.9 0.00 0.08 0.08 99 1012.3
20260507082230 44 194 1.7 1.7 0.05 0.08 0.08 99 1012.2
20260507081727 44 185 0.0 1.7 0.05 0.08 0.08 99 1012.1
20260507081223 44 273 1.7 2.6 0.00 0.07 0.07 99 1012.2
20260507080720 44 324 2.6 5.2 0.00 0.07 0.07 99 1012.2
20260507080216 45 214 1.7 1.7 0.07 0.07 0.07 99 1012.3
20260507075711 45 194 0.9 2.6 0.07 0.07 0.07 99 1012.1
20260507075208 45 181 0.0 1.7 0.00 0.06 0.06 99 1012.1
20260507074704 46 180 2.6 2.6 0.00 0.06 0.06 99 1012.2
20260507074203 45 183 0.0 0.9 0.00 0.06 0.06 99 1012.1
20260507073659 45 204 0.9 1.7 0.07 0.06 0.06 99 1012.1
20260507073155 45 199 1.7 1.7 0.07 0.06 0.06 99 1011.8
20260507072653 45 192 0.9 0.9 0.00 0.05 0.05 99 1011.8
20260507072150 45 187 0.0 0.9 0.00 0.05 0.05 99 1011.8
20260507071648 45 184 0.0 0.9 0.00 0.05 0.05 99 1011.7
20260507071144 45 182 0.0 0.9 0.00 0.05 0.05 99 1012.1
20260507070641 46 185 0.0 0.0 0.00 0.05 0.05 99 1011.9
20260507070138 45 185 0.0 0.9 0.00 0.05 0.05 99 1011.8
20260507065634 46 187 0.9 0.9 0.00 0.05 0.05 99 1011.9
20260507065131 46 187 0.0 0.0 0.00 0.05 0.05 99 1011.7
20260507064629 46 189 0.9 0.9 0.00 0.05 0.05 99 1011.9
20260507064127 46 186 0.9 0.9 0.00 0.05 0.05 99 1012.2
20260507063624 46 186 0.0 0.0 0.00 0.05 0.05 99 1011.9
20260507063121 46 192 0.0 1.7 0.05 0.05 0.05 99 1012.1
20260507062618 46 191 0.0 0.0 0.05 0.05 0.05 99 1011.9
20260507062116 46 195 0.0 0.0 0.00 0.04 0.04 99 1012.1
20260507061613 46 201 0.0 0.0 0.07 0.04 0.04 99 1011.9
20260507061111 46 183 0.0 0.0 0.00 0.03 0.03 99 1012.1
20260507060609 46 183 0.0 0.0 0.00 0.03 0.03 99 1012.2
20260507060105 46 187 0.0 0.0 0.05 0.03 0.03 99 1012.3
20260507055600 46 183 0.0 0.0 0.05 0.03 0.03 99 1012.2
20260507055057 46 183 0.0 0.0 0.00 0.02 0.02 99 1012.3
20260507054553 46 183 0.0 0.0 0.00 0.02 0.02 99 1012.5
20260507054050 46 184 0.0 0.0 0.00 0.02 0.02 99 1012.7
20260507053548 46 183 0.0 0.0 0.00 0.02 0.02 99 1012.6
20260507053046 46 183 0.0 0.0 0.00 0.02 0.02 99 1012.6
20260507052544 46 186 0.0 0.0 0.00 0.02 0.02 99 1012.5
20260507052040 46 186 0.0 0.0 0.00 0.02 0.02 99 1012.7
20260507051538 46 186 0.0 0.0 0.00 0.02 0.02 99 1012.8
20260507051035 46 187 0.0 0.9 0.00 0.02 0.02 99 1012.6
20260507050531 46 184 0.0 0.0 0.00 0.02 0.02 99 1012.6
20260507050028 46 184 0.0 0.9 0.07 0.02 0.02 99 1012.8
20260507045524 46 187 0.0 0.9 0.07 0.02 0.02 99 1013.1
20260507045022 46 184 0.0 0.0 0.00 0.01 0.01 99 1012.7
20260507044518 46 183 0.0 0.0 0.00 0.01 0.01 99 1012.6
20260507044015 46 183 0.0 0.0 0.00 0.01 0.01 99 1012.6